Regional Weather Roundup
Issued by NWS

Home | Current Version | Previous Version | Graphics & Text | Print | Product List | Glossary On
Versions: 1 2 3 4 5 6 7 8 9 10 11 12 13 14 15 16 17 18 19 20 21 22 23 24 25 26 27 28 29 30 31 32 33 34 35 36 37 38 39 40 41 42 43 44 45 46 47 48 49 50
000
ASUS43 KOAX 220802
RWRNE

WEATHER ROUNDUP FOR NEBRASKA
NATIONAL WEATHER SERVICE OMAHA NE
300 AM CDT TUE APR 22 2014

NOTES: SATELLITE DATA IS BEING USED TO AUGMENT CLOUD COVER ABOVE
       12000 FEET.
       "FAIR" INDICATES FEW OR NO CLOUDS BELOW 12,000 FEET WITH NO
       SIGNIFICANT WEATHER AND/OR OBSTRUCTIONS TO VISIBILITY.

  * THESE STATIONS DO NOT REPORT WEATHER SUCH AS RAIN...SNOW OR FOG.

NEZ001>004-019>022-054>056-220900-
NEBRASKA PANHANDLE

CITY           SKY/WX    TMP DP  RH WIND       PRES   REMARKS
SCOTTSBLUFF    CLEAR     47  27  45 E14       30.05F
ALLIANCE       CLEAR     45  27  49 SE13      30.08F
CHADRON        CLEAR     55  26  32 S22G28    30.01F
KIMBALL        PTCLDY    46  30  52 S15       30.08F
SIDNEY         PTCLDY    50  30  46 S16       30.10F
$$

NEZ057>060-069>072-079>082-220900-
SOUTHWEST NEBRASKA

CITY           SKY/WX    TMP DP  RH WIND       PRES   REMARKS
NORTH PLATTE   CLEAR     36  28  73 SE7       30.15F WCI  30
IMPERIAL       CLEAR     48  29  47 S10       30.14F
LEXINGTON      CLEAR     42  32  67 CALM      30.17F
MCCOOK         CLEAR     47  31  53 E5        30.16F
OGALLALA       CLEAR     46  28  49 CALM      30.13F
$$

NEZ005>010-023>029-035>040-094-220900-
NORTH CENTRAL NEBRASKA

CITY           SKY/WX    TMP DP  RH WIND       PRES   REMARKS
VALENTINE      CLEAR     45  29  53 S8        30.13F
AINSWORTH      CLEAR     42  32  67 S8        30.14F
BROKEN BOW     CLEAR     34  28  79 CALM      30.15F
O`NEILL        CLEAR     38  29  68 S5        30.16S WCI  35
ORD            CLEAR     37  29  72 S7        30.16S WCI  32
THEDFORD       CLEAR     43  28  54 SE6       30.15F
$$

NEZ041-046>049-061>064-073>077-083>087-220900-
SOUTH CENTRAL NEBRASKA

CITY           SKY/WX    TMP DP  RH WIND       PRES   REMARKS
GRAND ISLAND   CLEAR     41  33  73 S3        30.16F
AURORA         CLEAR     43  30  59 E6        30.15F
HASTINGS       CLEAR     46  29  51 E3        30.16S
HEBRON         CLEAR     46  32  57 CALM      30.15F
HOLDREGE       CLEAR     43  30  59 E8        30.16F
KEARNEY *      CLEAR     46  30  53 CALM      30.17S
YORK           CLEAR     41  28  60 NE6       30.16F
$$

NEZ011>018-030>034-042>045-220900-
NORTHEAST NEBRASKA

CITY           SKY/WX    TMP DP  RH WIND       PRES   REMARKS
NORFOLK        CLEAR     41  31  67 CALM      30.16S
ALBION         CLEAR     38  29  71 CALM      30.16F
BLAIR          CLEAR     47  32  55 N6        30.15S
COLUMBUS *     CLEAR     39  27  60 CALM      30.17S
FREMONT        CLEAR     45  32  60 N5        30.16S
TEKAMAH        CLEAR     38  28  67 NW8       30.16S WCI  32
$$

NEZ050>053-065>068-078-088>093-220900-
SOUTHEAST NEBRASKA

CITY           SKY/WX    TMP DP  RH WIND       PRES   REMARKS
LINCOLN        CLEAR     42  31  64 N8        30.17S
OMAHA EPPLEY   CLEAR     42  33  70 N8        30.15F
BEATRICE       CLEAR     46  30  54 NE6       30.15S
FALLS CITY     CLEAR     48  35  60 NW8       30.13R
NEBRASKA CITY  CLEAR     48  34  58 NE3       30.14F
PLATTSMOUTH    CLEAR     48  32  53 N5        30.15S
$$

NEZ044-045-051>053-067-220900-
OMAHA AREA

CITY           SKY/WX    TMP DP  RH WIND       PRES   REMARKS
OMAHA EPPLEY   CLEAR     42  33  70 N8        30.15F
BLAIR          CLEAR     47  32  55 N6        30.15S
FREMONT        CLEAR     45  32  60 N5        30.16S
MILLARD        CLEAR     51  32  49 CALM      30.15S
OFFUTT AFB     CLEAR     50  34  53 N7        30.15S
PLATTSMOUTH    CLEAR     48  32  53 N5        30.15S
WAHOO          FAIR      45  31  57 N6        30.16R
$$



USA.gov is the U.S. government's official web portal to all federal, state and local government web resources and services.